Location: Coffee Creek Observatory
(38.8077°N, 94.7179°W)
Time: 12:19:17
(UTC-06:00)

Daily predictions for brighter satellites

Satellite Brightness Start Highest point End
(mag) Time Altitude Azimuth Time Altitude Azimuth Time Altitude Azimuth
COSMOS 2406 3.2 17:16:54 10° NNW 17:22:36 67° ENE 17:28:18 10° SSE
Cosmos 2154 Rocket 4.3 17:17:37 10° N 17:23:50 76° W 17:30:04 10° S
Cosmos 1125 Rocket 4.2 17:20:34 10° SSW 17:25:47 57° WNW 17:31:02 10° N
Tiangong 1 3.5 17:26:38 10° SSE 17:27:16 10° SE 17:27:54 10° SE
ISS -2.7 17:25:06 10° WSW 17:28:20 52° NW 17:31:34 10° NE
ATLAS 2AS CENTAUR R/B 3.3 17:21:57 10° NNW 17:29:44 48° NE 17:37:02 10° ESE
Meteor 1-5 Rocket 4.1 17:27:49 10° N 17:33:14 69° E 17:38:46 10° SSE
Thor Agena Rocket 3.6 17:29:32 10° NNE 17:34:43 66° ESE 17:39:56 10° S
Cosmos 1484 Rocket 4.0 17:35:04 10° ESE 17:37:53 20° ENE 17:40:41 10° NNE
Cosmos 1536 Rocket 4.4 17:35:09 10° SSE 17:39:03 31° E 17:43:00 10° NNE
Cosmos 2082 Rocket 3.7 17:39:16 10° NNE 17:42:23 15° NE 17:45:09 11° E
Cosmos 1833 Rocket 4.3 17:43:25 10° NNE 17:46:07 13° NE 17:47:38 12° ENE
AQUARIUS 4.1 17:42:22 10° SSE 17:46:51 77° ENE 17:51:21 10° N
YAOGAN 1 2.5 17:42:34 10° SSE 17:46:52 70° ENE 17:51:11 10° N
Cosmos 2251 Rocket 3.7 17:41:48 10° N 17:46:59 48° ENE 17:52:06 10° SE
SJ-7 4.4 17:47:58 10° SSE 17:52:11 76° ENE 17:56:26 10° N
SL-27 R/B 2.4 17:51:09 10° NNW 17:54:49 66° ENE 17:58:24 10° SSE
Cosmos 1500 4.2 17:53:41 10° NNE 17:56:53 25° ENE 18:00:05 10° SE
CZ-2C R/B 2.6 17:52:52 10° S 17:57:48 83° WSW 18:02:55 10° NNW
Cosmos 1238 Rocket 1.9 17:55:19 10° S 17:58:16 70° E 18:01:14 10° NNE
SL-8 Rocket 4.0 17:54:10 10° N 18:00:21 86° W 18:06:30 10° S
EP 2 4.2 17:58:07 10° SSW 18:00:43 62° ESE 18:02:09 23° NE
BREEZE M DEB (TANK) 3.6 17:50:22 10° SW 18:01:30 55° SSE 18:04:05 19° ENE
CZ-4 R/B 4.3 17:57:25 10° SSE 18:01:32 76° ENE 18:05:42 10° N
SMAP 3.4 17:59:51 10° S 18:04:28 70° WSW 18:09:08 10° NNW
OPS 8737 4.3 18:02:18 10° SW 18:05:43 78° WNW 18:07:58 18° NNE
BREEZE-M R/B 4.5 17:53:49 10° SW 18:06:00 86° SE 18:10:11 19° ENE
SL-24 DEB 4.3 18:01:21 10° NNE 18:06:02 57° E 18:10:39 10° S
Meteor 2-19 Rocket 4.5 18:00:11 10° N 18:06:16 86° W 18:12:19 10° S
Okean 1 3.4 18:02:26 10° S 18:06:22 54° E 18:10:21 10° NNE
SKYMED 2 3.7 18:05:10 10° NNE 18:09:24 51° E 18:13:38 10° S
Cosmos 1455 Rocket 3.0 18:05:35 10° N 18:10:00 80° E 18:14:25 10° S
Cosmos 2366 rocket 4.0 18:04:40 10° N 18:11:04 84° E 18:17:22 10° S
COSMOS 2441 4.3 18:06:28 10° SSE 18:11:17 71° ENE 18:16:10 10° N
OTV 4 2.4 18:11:01 10° W 18:13:38 27° SSW 18:16:04 11° SE
Cosmos 2218 Rocket 4.1 18:08:03 10° N 18:14:21 81° W 18:20:32 10° S
Meteor 1-18 Rocket 4.2 18:09:34 10° S 18:15:11 88° W 18:20:57 10° N
Cosmos 1812 3.0 18:14:38 10° SSW 18:18:28 69° W 18:22:20 10° N
GEOS 3 Rocket 3.7 18:17:24 10° SE 18:22:20 51° NE 18:27:17 10° NNW
Cosmos 1346 Rocket 2.7 18:20:55 10° S 18:24:46 57° E 18:26:53 24° NNE
Cosmos 1809 Rocket 4.4 18:23:07 10° N 18:29:14 65° E 18:35:17 10° SSE
Cosmos 1844 Rocket 4.0 18:24:38 10° SW 18:29:46 36° WNW 18:34:57 10° N
ATLAS 3B CENTAUR R/B 4.3 18:12:58 10° WSW 18:32:16 46° S 18:38:07 18° ESE
CZ-4 R/B 4.3 18:33:47 10° SW 18:36:55 20° W 18:40:04 10° NW
SL-8 R/B 3.8 18:32:22 10° WSW 18:37:07 69° NNW 18:38:57 37° NE
MSX 4.4 18:31:51 10° S 18:37:31 59° W 18:43:12 10° NNW
CZ-3B DEB 2.9 18:33:49 10° WSW 18:37:41 50° NNW 18:43:53 19° NE
COSMOS 2487 4.4 18:38:43 10° N 18:39:54 19° N 18:39:54 19° N
Cosmos 2297 3.6 18:39:25 10° S 18:44:58 63° ESE 18:47:18 35° NE
Cosmos 1821 Rocket 4.1 18:40:19 10° N 18:46:12 47° ENE 18:52:01 10° SSE
Cosmos 1975 3.7 18:46:49 10° NNW 18:50:45 50° W 18:54:40 10° SSW
TIMED 4.3 18:48:35 10° S 18:52:56 75° ESE 18:53:21 68° ENE
COSMO-SKYMED 1 3.7 18:53:16 10° N 18:57:24 43° WNW 19:01:30 10° SW
Cosmos 2278 Rocket 3.1 18:55:05 10° SW 19:00:28 45° WNW 19:04:53 15° N
Tiangong 1 3.0 19:00:01 10° WSW 19:01:34 27° SW 19:01:34 27° SW
Meteor 1-19 Rocket 4.1 18:57:21 10° S 19:03:07 83° E 19:06:35 26° NNE
BREEZE M DEB (TANK) 4.0 19:01:06 10° NW 19:05:10 45° NNE 19:06:13 43° NE
NOSS 3-4 (A) 4.5 18:58:57 10° NNW 19:04:34 34° NE 19:04:34 34° NE
NOSS 3-4 (C) 4.5 18:59:04 10° NNW 19:04:38 34° NNE 19:04:38 34° NNE
ISS -0.5 19:03:47 10° NW 19:04:42 12° NNW 19:04:42 12° NNW
Nadezhda 3 Rocket 4.2 19:00:24 10° SSW 19:06:33 69° W 19:12:47 10° N
ATLAS 2AS CENTAUR R/B 4.2 19:13:21 10° NW 19:20:39 41° WSW 19:27:27 10° S
Cosmos 2082 Rocket 2.1 19:21:31 10° NNW 19:27:08 85° W 19:27:08 85° W
Cosmos 1833 Rocket 3.1 19:25:13 10° NNW 19:29:25 52° NNW 19:29:25 52° NNW
Meteor 1-23 Rocket 4.4 19:27:59 10° S 19:32:44 62° SSW 19:32:44 62° SSW
FALCON 9 R/B 3.0 19:34:24 10° W 19:50:53 66° S 19:51:03 66° S
Meteor 2-4 Rocket 4.5 19:45:58 10° SSW 19:50:25 46° WSW 19:50:25 46° WSW
